Orange, MA

5:47 AM EDT on October 15, 2019 (GMT -0400)
Orange Municipal

Weather History for KORE - August, 2019

Change the Weather History Date:

Saturday, August 17, 2019

  Actual Average Record
Temperature  
Mean Temperature 76 °F -  
Max Temperature 84 °F 78 °F 89 °F (1999)
Min Temperature 68 °F 55 °F 48 °F (2013)
Cooling Degree Days 11    
Growing Degree Days 26 (Base 50)    
Moisture  
Dew Point 66 °F    
Average Humidity 80    
Maximum Humidity 94    
Minimum Humidity 56    
Precipitation  
Precipitation 0.77 in - - ()
Sea Level Pressure  
Sea Level Pressure 30.04 in    
Wind  
Wind Speed 6 mph (South)    
Max Wind Speed 17 mph    
Max Gust Speed 30 mph    
Visibility 8 miles    
Events Rain , Thunderstorm    
Averages and records for this station are not official NWS values.
T = Trace of Precipitation, MM = Missing Value Source: NWS Daily Summary

Daily Weather History Graph

Daily Weather History Graph

Search for Another Location

Airport or City:

Astronomy

Aug. 17, 2019 Rise Set
Actual Time 5:57 AM EDT 7:47 PM EDT
Civil Twilight 5:27 AM EDT 8:18 PM EDT
Nautical Twilight 4:50 AM EDT 8:54 PM EDT
Astronomical Twilight 4:10 AM EDT 9:34 PM EDT
Moon 9:12 PM EDT (8/17) 7:44 AM EDT (8/17)
Length of Visible Light 14h 50m
Length of Day
13h 50m
Waning Gibbous, 96% of the Moon is Illuminated
Aug 17
Waning Gibbous
Aug 23
Last Quarter
Aug 30
New
Sep 5
First Quarter
Sep 14
Full

Hourly Weather History & Observations

Time (EDT) Temp. Heat Index Dew Point Humidity Pressure Visibility Wind Dir Wind Speed Gust Speed Precip Events Conditions
12:52 AM 70.0 °F - 63.0 °F 78% 30.06 in 10.0 mi South 5.8 mph - N/A   Overcast
1:52 AM 70.0 °F - 63.0 °F 78% 30.08 in 10.0 mi South 4.6 mph - N/A   Overcast
2:52 AM 69.1 °F - 64.0 °F 84% 30.07 in 10.0 mi South 5.8 mph - N/A   Overcast
3:01 AM 69.1 °F - 64.0 °F 84% 30.08 in 10.0 mi South 6.9 mph - N/A   Overcast
3:52 AM 69.1 °F - 63.0 °F 81% 30.07 in 10.0 mi SSE 3.5 mph - N/A   Overcast
4:02 AM 69.1 °F - 63.0 °F 81% 30.08 in 10.0 mi SSE 3.5 mph - N/A   Overcast
4:30 AM 69.1 °F - 63.0 °F 81% 30.07 in 10.0 mi SSE 5.8 mph - N/A   Overcast
4:52 AM 69.1 °F - 63.0 °F 81% 30.07 in 10.0 mi South 4.6 mph - N/A   Overcast
5:52 AM 68.0 °F - 63.0 °F 84% 30.06 in 10.0 mi SSE 5.8 mph - N/A   Overcast
6:52 AM 68.0 °F - 64.0 °F 87% 30.07 in 10.0 mi Variable 3.5 mph - N/A   Overcast
7:52 AM 69.1 °F - 64.0 °F 84% 30.08 in 10.0 mi Calm Calm - N/A   Overcast
8:52 AM 70.0 °F - 64.0 °F 81% 30.07 in 10.0 mi SSE 4.6 mph - N/A   Overcast
9:52 AM 73.0 °F - 64.9 °F 76% 30.07 in 10.0 mi South 8.1 mph - N/A   Overcast
10:48 AM 75.2 °F - 66.2 °F 73% 30.06 in 10.0 mi Variable 4.6 mph - N/A   Overcast
10:52 AM 77.0 °F - 66.0 °F 69% 30.06 in 10.0 mi Variable 6.9 mph - N/A   Overcast
11:52 AM 75.9 °F - 66.0 °F 71% 30.06 in 10.0 mi South 5.8 mph - N/A   Overcast
12:52 PM 77.0 °F - 66.9 °F 71% 30.06 in 10.0 mi SSE 6.9 mph - N/A   Overcast
1:45 PM 80.1 °F 82.3 °F 66.9 °F 64% 30.06 in 10.0 mi South 6.9 mph - N/A   Scattered Clouds
1:52 PM 81.0 °F 83.3 °F 66.9 °F 62% 30.05 in 10.0 mi South 9.2 mph - N/A   Scattered Clouds
2:52 PM 82.0 °F 84.5 °F 66.9 °F 60% 30.03 in 10.0 mi SSE 10.4 mph - N/A   Clear
3:52 PM 82.9 °F 85.4 °F 66.9 °F 58% 30.01 in 10.0 mi South 10.4 mph - N/A   Clear
4:52 PM 84.0 °F 86.5 °F 66.9 °F 56% 29.97 in 10.0 mi SSW 13.8 mph - N/A   Clear
5:52 PM 84.0 °F 87.0 °F 68.0 °F 58% 29.96 in 10.0 mi South 9.2 mph - N/A   Partly Cloudy
6:52 PM 81.0 °F 84.1 °F 69.1 °F 67% 29.98 in 10.0 mi South 8.1 mph - N/A   Mostly Cloudy
7:52 PM 79.0 °F - 70.0 °F 74% 29.98 in 10.0 mi SE 3.5 mph - N/A   Partly Cloudy
8:14 PM 78.1 °F - 69.1 °F 74% 30.00 in 10.0 mi Calm Calm - N/A Thunderstorm Partly Cloudy
8:37 PM 70.0 °F - 64.9 °F 84% 30.04 in 3.0 mi North 17.3 mph 29.9 mph 0.09 in Rain , Thunderstorm Heavy Thunderstorms and Rain
8:39 PM 69.1 °F - 64.9 °F 87% 30.04 in 2.0 mi NNW 11.5 mph 29.9 mph 0.17 in Rain , Thunderstorm Heavy Thunderstorms and Rain
8:42 PM 68.0 °F - 66.0 °F 93% 30.05 in 1.2 mi North 8.1 mph 26.5 mph 0.28 in Rain , Thunderstorm Heavy Thunderstorms and Rain
8:45 PM 68.0 °F - 66.0 °F 93% 30.05 in 1.0 mi Variable 4.6 mph 25.3 mph 0.37 in Rain , Thunderstorm Heavy Thunderstorms and Rain
8:49 PM 68.0 °F - 66.2 °F 94% 30.04 in 1.0 mi NE 6.9 mph - 0.50 in Rain , Thunderstorm Heavy Thunderstorms and Rain
8:52 PM 68.0 °F - 66.0 °F 93% 30.03 in 1.0 mi ENE 6.9 mph - 0.60 in Rain , Thunderstorm Heavy Thunderstorms and Rain
8:57 PM 68.0 °F - 66.0 °F 93% 30.04 in 1.5 mi ESE 5.8 mph - 0.05 in Rain , Thunderstorm Heavy Thunderstorms and Rain
9:01 PM 68.0 °F - 66.0 °F 93% 30.03 in 2.0 mi East 6.9 mph - 0.09 in Rain , Thunderstorm Heavy Thunderstorms and Rain
9:10 PM 69.1 °F - 66.0 °F 90% 30.04 in 5.0 mi SSW 8.1 mph - 0.11 in Rain , Thunderstorm Thunderstorms and Rain
9:49 PM 69.8 °F - 66.2 °F 88% 30.02 in 10.0 mi West 3.5 mph - 0.16 in   Overcast
9:52 PM 69.1 °F - 66.0 °F 90% 30.02 in 10.0 mi WSW 3.5 mph - 0.16 in Rain Light Rain
10:13 PM 69.1 °F - 66.9 °F 93% 30.01 in 10.0 mi Calm Calm - 0.00 in Rain Light Rain
10:45 PM 69.1 °F - 66.9 °F 93% 30.02 in 10.0 mi NW 3.5 mph - 0.01 in   Mostly Cloudy
10:52 PM 69.1 °F - 66.0 °F 90% 30.02 in 10.0 mi NW 4.6 mph - 0.01 in Rain Light Rain
10:59 PM 69.1 °F - 66.0 °F 90% 30.03 in 10.0 mi Calm Calm - 0.00 in Rain Light Rain
11:07 PM 69.1 °F - 66.0 °F 90% 30.03 in 10.0 mi Calm Calm - 0.00 in   Scattered Clouds
11:52 PM 69.1 °F - 66.0 °F 90% 30.03 in 10.0 mi SE 4.6 mph - 0.00 in   Clear